#timestamp,LO_Frequency,Hit,StdDev 
1541016015.6,286046998.5,N
1541016035.5,286046998.2,N
1541016055.3,286047000.9,N
1541016075.2,286047002.5,N
1541016095.0,286047002.6,N
1541016095.9,286047002.6,N
1541016115.8,286047002.0,N
1541016135.6,286047002.4,N
1541016155.4,286047002.4,N
1541016175.3,286047000.3,N
1541016195.1,286046999.0,N
1541016215.8,286046998.5,N
1541016235.7,286046998.2,N
1541016255.5,286046998.7,N
1541016275.4,286046998.4,N
1541016295.2,286046998.5,N
1541016315.0,286046998.2,N
1541016315.9,286046998.2,N
1541016335.8,286047000.5,N
1541016355.6,286046999.8,N
1541016375.4,286047000.5,N
1541016395.3,286046999.7,N
1541016415.1,286047002.6,N
1541016435.9,286047002.7,N
1541016455.7,286046999.9,N
1541016475.5,286047000.2,N
1541016495.4,286047002.0,N
1541016515.2,286047001.4,N
1541016535.1,286047001.9,N
1541016536.0,286047001.9,N
1541016555.8,286047002.4,N
1541016575.6,286047001.0,N
1541016595.5,286047000.7,N
1541016615.3,286047000.5,N
1541016635.2,286046999.8,N
1541016655.9,286047001.8,N
1541016675.7,286047001.4,N
1541016695.6,286047003.8,N
1541016715.4,286047003.9,N
1541016735.3,286047001.4,N
1541016755.1,286047001.3,N
1541016756.0,286047001.3,N
1541016775.8,286047002.6,N
1541016795.7,286047004.1,N
1541016815.5,286047004.4,N
1541016835.4,286047001.4,N
1541016855.2,286047004.0,N
1541016875.0,286047004.1,N
1541016875.9,286047004.1,N
1541016895.8,286047003.9,N
1541016915.6,286047003.9,N
1541016935.4,286047001.5,N
1541016955.3,286047002.5,N
1541016975.1,286046999.7,N
1541016995.9,286047002.8,N
1541017015.7,286047002.3,N
1541017035.5,286047002.6,N
1541017055.4,286046999.8,N
1541017075.2,286047002.2,N
1541017095.1,286046999.9,N
1541017096.0,286046999.9,N
1541017115.8,286046998.6,N
1541017135.6,286046998.8,N
1541017155.5,286046998.5,N
1541017175.3,286046998.9,N
1541017195.1,286046996.7,N
1541017215.9,286046996.6,N
1541017235.7,286046999.1,N
1541017255.6,286046998.9,N
1541017275.4,286046999.1,N
1541017295.2,286046996.7,N
1541017315.1,286046999.1,N
1541017316.0,286046999.1,N
1541017335.8,286046998.0,N
1541017355.7,286046994.9,N
1541017375.5,286046995.4,N
1541017395.3,286046998.0,N
1541017415.2,286046995.6,N
1541017435.0,286046995.3,N
1541017435.9,286046995.3,N
1541017455.7,286046995.4,N
1541017475.6,286046995.8,N
1541017495.4,286046995.5,N
1541017515.3,286046995.7,N
1541017535.1,286046995.6,N
1541017536.0,286046995.6,N
1541017555.8,286046995.3,N
1541017575.7,286046997.2,N
1541017595.5,286046994.9,N
1541017615.3,286046997.9,N
1541017635.2,286046995.8,N
1541017655.0,286046995.8,N
1541017655.9,286046995.8,N
1541017675.8,286046996.1,N
1541017695.6,286046995.3,Y
1541017715.4,286046999.4,P
1541017735.3,286046998.3,N
1541017755.1,286046999.1,N
1541017775.9,286046998.6,N
1541017795.7,286047001.1,N
1541017815.5,286046998.3,N
1541017835.4,286047001.1,N
1541017855.2,286047001.2,N
1541017875.1,286046999.0,N
1541017876.0,286046999.0,N
1541017895.8,286046997.1,N
1541017915.6,286046999.6,N
1541017935.5,286046996.7,N
1541017955.3,286046997.1,N
1541017975.1,286046998.9,N
1541017995.9,286046998.4,N
1541018015.7,286046998.3,N
1541018035.6,286046996.6,N
1541018055.4,286046998.4,N
1541018075.2,286046999.3,N
1541018095.1,286046999.4,N
1541018096.0,286046999.4,N
1541018115.8,286046998.4,N
1541018135.6,286046998.2,N
1541018155.5,286047000.6,N
1541018175.3,286046998.1,N
1541018195.2,286046998.5,N
1541018215.9,286046996.5,N
1541018235.7,286046997.6,N
1541018255.6,286046997.9,N
1541018275.4,286046995.6,Y
1541018295.2,286046996.6,P
1541018315.1,286046997.1,N
1541018316.0,286046997.1,P
1541018335.8,286046997.4,Y
1541018355.7,286047001.1,P
1541018375.5,286046999.2,N
1541018395.3,286047009.7,P
1541018415.2,286047013.2,N
1541018435.0,286047011.8,N
1541018435.9,286047011.8,N
1541018455.7,286047008.4,N
1541018475.0,286047006.1,N
1541018475.9,286047006.1,N
1541018495.8,286047004.8,N
1541018515.6,286047004.3,N
1541018535.5,286047004.3,N
1541018555.3,286047001.8,N
1541018575.1,286047003.8,N
1541018595.9,286047003.8,N
1541018615.7,286047002.9,N
1541018635.5,286047005.9,N
1541018655.4,286047003.8,N
1541018675.2,286047002.4,N
1541018695.1,286047002.7,N
1541018696.0,286047002.7,N
1541018715.8,286047001.0,N
1541018735.6,286047011.9,Y
1541018755.5,286046995.9,P
1541018775.3,286046996.1,N
1541018795.4,286046995.8,N
1541018815.2,286046995.3,N
1541018835.0,286046996.0,N
1541018835.9,286046996.0,N
1541018855.8,286046995.8,N
1541018875.6,286046996.2,N
1541018895.5,286046996.4,N
1541018915.3,286046993.7,N
1541018935.1,286046996.3,N
1541018955.9,286046995.9,N
1541018975.7,286046993.7,N
1541018995.6,286046995.9,N
1541019015.4,286046993.3,N
1541019035.2,286047001.5,N
1541019055.1,286047013.1,Y
1541019056.0,286047013.1,P
1541019075.8,286047017.2,N
1541019095.7,286047013.1,N
1541019115.5,286047010.3,N
1541019135.3,286047006.8,N
1541019155.2,286047004.6,N
1541019175.0,286047006.7,N
1541019175.9,286047006.7,N
1541019195.8,286047007.6,N
1541019215.6,286047006.3,N
1541019235.5,286047005.7,N
1541019255.3,286047003.3,N
1541019275.1,286047004.1,N
1541019295.9,286047002.3,N
1541019315.7,286047002.6,N
1541019335.5,286047000.2,N
1541019355.4,286047000.8,N
1541019375.2,286046999.2,N
1541019395.1,286046996.7,N
1541019396.0,286046996.7,N
1541019415.8,286046996.8,N
1541019435.6,286046994.9,N
1541019455.5,286046997.7,N
1541019475.3,286046997.1,N
1541019495.1,286046999.2,N
1541019515.9,286046997.1,N
1541019535.7,286046996.6,N
1541019555.6,286046999.1,N
1541019575.4,286046998.9,N
1541019595.2,286046998.6,N
